Hourly Data Report for October 22, 2013

All times are specified in Local Standard Time (LST). Add 1 hour to adjust for Daylight Saving Time where and when it is observed.

KITCHENER/WATERLOO
ONTARIO

43°27'39.000" N
80°22'43.000" W
321.60 m
6144239
71368
YKF

Download Data

Hourly Data (October 2013)
Hourly Data Report for October 22, 2013
Temp Definition
°C
Dew Point Temp Definition
°C
Rel Hum Definition
%
Wind Dir Definition
10's deg

Wind Spd Definition
km/h
Visibility Definition
km
Stn Press Definition
kPa
Hmdx Definition


Wind Chill Definition


Weather Definition


TIME
00:00 Legend Double Dagger 5.8 3.3 84 26 13 16.1 96.97     LegendNANA
01:00 Legend Double Dagger 4.9 1.5 79 25 15 16.1 96.99     LegendNANA
02:00 Legend Double Dagger 3.8 1.4 84 23 18 16.1 97.00     LegendNANA
03:00 Legend Double Dagger 4.6 2.2 85 23 26 16.1 96.99     LegendNANA
04:00 Legend Double Dagger 3.8 2.5 91 26 22 11.3 97.03     LegendNANA
05:00 Legend Double Dagger 3.0 -1.5 72 26 28 16.1 97.08     LegendNANA
06:00 Legend Double Dagger 1.7 -2.7 73 25 21 16.1 97.12     LegendNANA
07:00 Legend Double Dagger 0.8 -2.3 80 23 15 16.1 97.14     LegendNANA
08:00 Legend Double Dagger 2.0 -1.8 76 23 18 16.1 97.19     LegendNANA
09:00 Legend Double Dagger 3.6 -1.7 69 23 28 16.1 97.19     LegendNANA
10:00 Legend Double Dagger 4.4 -2.0 63 24 26 16.1 97.19     LegendNANA
11:00 Legend Double Dagger 4.5 -1.9 63 25 28 16.1 97.19     LegendNANA
12:00 Legend Double Dagger 5.2 -1.7 61 25 35 16.1 97.18     LegendNANA
13:00 Legend Double Dagger 5.6 -1.7 59 24 32 16.1 97.13     LegendNANA
14:00 Legend Double Dagger 5.9 -0.9 62 24 32 16.1 97.11     LegendNANA
15:00 Legend Double Dagger 6.2 -0.7 61 24 32 16.1 97.08     LegendNANA
16:00 Legend Double Dagger 6.7 -0.5 60 24 24 16.1 97.09     LegendNANA
17:00 Legend Double Dagger 5.9 -0.5 63 24 28 16.1 97.12     LegendNANA
18:00 Legend Double Dagger 5.3 -0.6 66 24 18 16.1 97.15     LegendNANA
19:00 Legend Double Dagger 5.3 -1.1 63 25 17 16.1 97.15     LegendNANA
20:00 Legend Double Dagger 3.8 -0.8 72 22 9 16.1 97.15     LegendNANA
21:00 Legend Double Dagger 4.3 0.3 75 25 5 16.1 97.19     LegendNANA
22:00 Legend Double Dagger 4.5 1.4 80 25 9 16.1 97.17     LegendNANA
23:00 Legend Double Dagger 3.5 1.7 88 30 8 16.1 97.16     LegendNANA

Notes on Data Quality.

Legend

  • E = Estimated
  • M = Missing
  • NA = Not Available
  • ‡ = Partner data that is not subject to review by the National Climate Archives
Date modified: